Retour au catalogue

COSMOS 2499 DEB

ActifPO
NORAD 56581·DEBRIS·🇷🇺 Russia

Lancé May 23, 2014 depuis Plesetsk Cosmodrome

Loading…

Prochains Passages (prochaines 24 heures)

TLE

FraisSource: Space-Track

Époque: Sep 14, 2026, 07:13 UTC

1 56581U 14028BQ  26257.30097002  .00006832  00000-0  95989-2 0  9994
2 56581  82.2289  98.6148 0329412 289.2547  67.3225 13.37110494110754

Suivez COSMOS 2499 DEB en temps réel avec AllMySat

Download on the App Store